Location: *
(25.1044°S, 147.2084°W)
Time: 22:53:37
(UTC+00:00)

Daily predictions for brighter satellites

Satellite Brightness Start Highest point End
(mag) Time Altitude Azimuth Time Altitude Azimuth Time Altitude Azimuth
Atlas 2A Centaur Rocket 4.0 13:35:36 43° NNE 13:35:36 43° NNE 13:38:16 10° NE
ASC 2 Rocket 4.3 13:47:41 60° ENE 13:47:41 60° ENE 13:54:16 10° E
ATLAS 3B CENTAUR R/B 2.9 13:50:11 53° NE 13:50:11 53° NE 13:53:29 10° ENE
Cosmos 2237 Rocket 2.4 14:01:19 68° ENE 14:01:19 68° ENE 14:06:34 10° NNE
CZ-3 R/B 3.4 13:32:35 10° WNW 14:07:55 74° NNE 14:16:03 10° E
BREEZE-M DEB (TANK) 4.4 14:07:23 52° NNW 14:08:57 77° NE 14:26:16 10° SE
Delta 7925 Rocket 3.8 14:11:02 59° NNE 14:11:02 59° NNE 14:15:31 10° ENE
Cosmos 1825 4.2 14:13:36 22° SE 14:14:48 27° E 14:18:02 10° NE
Delta 2 Rocket 3.9 14:15:24 72° W 14:16:10 85° S 14:22:25 10° E
Meteor 2-13 Rocket 4.3 14:24:26 62° WSW 14:24:57 65° W 14:30:55 10° N
GPS 2-04 Rocket1 4.1 14:27:39 28° ESE 14:27:39 28° ESE 14:29:24 10° ESE
Lacrosse 5 rocket 2.4 14:28:51 33° SE 14:29:20 35° SE 14:32:48 10° ENE
USA 215 3.3 14:23:07 10° SE 14:29:44 80° NE 14:36:17 10° NW
CZ-4B R/B 3.7 14:26:20 10° NNE 14:30:25 54° ESE 14:33:18 20° S
Cosmos 2058 4.0 14:29:42 10° S 14:33:46 44° E 14:37:48 10° NNE
ASTEX 1 3.2 14:35:14 10° S 14:40:13 79° W 14:45:10 10° N
Cosmos 2034 Rocket 4.4 14:34:27 10° NNW 14:41:50 36° SW 14:46:09 10° SSW
Meteor 2-1 Rocket 4.1 14:40:54 10° NNW 14:46:18 61° W 14:51:50 10° S
Cosmos 1953 Rocket 4.0 14:47:50 42° WNW 14:47:50 42° WNW 14:51:24 10° NNW
IRAS Rocket 4.3 14:41:42 10° SSE 14:47:15 78° ENE 14:52:47 10° N
deb Chang Zheng 4 4.3 14:44:21 10° NNE 14:48:26 52° ESE 14:52:37 10° S
Cosmos 1634 Rocket 4.0 14:42:36 10° N 14:48:54 89° E 14:55:18 10° S
Aureole 3 4.1 14:46:48 10° NNE 14:49:45 42° E 14:53:10 10° SSE
ASTRO E2 3.2 14:51:43 40° SSW 14:52:27 45° SSE 14:56:17 10° E
Cosmos 2263 Rocket 2.1 14:49:26 10° NNW 14:55:07 78° WSW 15:00:52 10° SSE
GPS 2-18 Rocket1 4.0 15:02:04 25° NW 15:03:46 39° N 15:07:23 10° ENE
Okean O Rocket 4.3 15:03:53 10° ENE 15:06:54 19° ESE 15:09:56 10° SSE
Milstar 3 Cent rocket 4.3 15:02:47 19° W 15:08:32 29° NW 15:14:24 10° NNE
Meteor 2-19 Rocket 4.4 15:05:19 10° S 15:11:28 83° W 15:17:33 10° N
Envisat 3.3 15:06:44 10° N 15:11:33 44° W 15:16:27 10° SSW
Cosmos 1428 Rocket 4.5 15:07:41 10° S 15:13:52 87° E 15:20:02 10° N
Landsat 5 3.7 15:09:42 10° SSE 15:14:17 84° E 15:18:48 10° N
Cosmos 2142 Rocket 4.4 15:08:25 10° N 15:14:32 82° W 15:20:45 10° S
Cosmos 2098 Rocket 3.7 15:10:28 10° SSW 15:14:55 48° W 15:20:25 10° NNW
SL-16 R/B 2.1 15:09:26 10° SSW 15:15:09 78° WNW 15:20:50 10° NNE
MOS 1 Rocket 3.6 15:09:48 10° S 15:15:20 88° W 15:20:42 10° NNW
NOAA 6 4.1 15:12:12 10° NNE 15:17:23 82° ESE 15:22:38 10° S
DEBRIS 3.7 15:07:04 10° NW 15:18:22 84° SW 15:21:43 10° SE
YAOGAN 6 3.5 15:15:50 10° NNW 15:18:54 27° W 15:19:57 23° WSW
GPS 2-17 Rocket1 4.0 15:19:18 12° WNW 15:23:20 41° N 15:27:35 10° ENE
NOAA 11 4.3 15:18:02 10° NNE 15:23:29 83° ESE 15:28:58 10° S
Cosmos-2242 3.1 15:21:29 10° N 15:25:52 87° E 15:30:19 10° S
Stardust Del rocket 3.9 15:26:13 13° WNW 15:28:50 53° N 15:34:20 10° E
Meteor 1-4 Rocket 2.4 15:26:30 10° N 15:30:04 84° W 15:33:39 10° S
Cosmos 1869 4.2 15:29:43 10° N 15:33:42 55° E 15:37:45 10° SSE
Cosmos 2279 Rocket 4.0 15:27:39 10° NNW 15:33:49 61° W 15:40:02 10° S
USA 229 DEB 4.2 15:29:00 10° SSW 15:35:25 56° ESE 15:41:34 10° NE
USA 229 4.2 15:29:06 10° SSW 15:35:30 55° ESE 15:41:38 10° NE
Cosmos 1076 Rocket 3.6 15:31:32 10° SSW 15:35:53 60° W 15:40:11 10° N
Cosmos 1092 Rocket 4.4 15:30:10 10° SSW 15:36:10 44° W 15:42:05 10° NNW
Cosmos 2026 Rocket 4.2 15:38:12 10° SSW 15:44:07 48° W 15:49:54 10° NNW
Delta 2 Rocket 3.0 15:41:40 10° WNW 15:45:02 59° SSW 15:48:41 10° SE
Cosmos 2151 3.1 15:41:05 10° S 15:45:26 86° E 15:49:44 10° N
Delta 198 3.5 15:41:58 10° WNW 15:46:19 68° N 15:50:07 10° E
CZ-4C R/B 3.8 15:43:45 10° SSW 15:46:49 29° WSW 15:49:47 10° NW
SKYMED 2 3.6 15:44:04 10° SSE 15:48:29 88° ENE 15:52:50 10° NNW
Cosmos 1825 4.2 15:49:09 10° WSW 15:49:53 10° W 15:50:38 10° W
AQUARIUS 4.2 15:47:05 10° N 15:51:32 61° W 15:56:01 10° SSW
CZ-4 R/B 4.3 15:49:16 10° ENE 15:51:41 16° ESE 15:54:08 10° SE
Tianhe-1 3.1 15:50:15 10° NNW 15:53:02 30° NE 15:55:49 10° ESE
FengYun 1-2 T 4.3 15:48:49 10° N 15:54:25 66° WNW 16:00:04 10° SSW
NOSS 3-1 (A) 3.4 15:49:53 10° SSW 15:55:35 72° ESE 16:00:38 10° NNE
H-2A R/B 4.0 15:52:13 10° NE 15:57:03 33° ESE 16:01:55 10° S
